Weather History for KBFW - November, 2011

Change the Weather History Date:

Wednesday, November 30, 2011

  Actual Average Record
Temperature  
Mean Temperature 20 °F -  
Max Temperature 33 °F 28 °F 44 °F (1998)
Min Temperature 6 °F 14 °F -5 °F (2007)
Degree Days  
Heating Degree Days 46    
Moisture  
Dew Point 15 °F    
Average Humidity 75    
Maximum Humidity 93    
Minimum Humidity 48    
Precipitation  
Precipitation 0.04 in - - ()
Sea Level Pressure  
Sea Level Pressure 29.90 in    
Wind  
Wind Speed 0 mph (NE)    
Max Wind Speed 4 mph    
Max Gust Speed -    
Visibility 8 miles    
Events Snow    
Averages and records for this station are not official NWS values.
T = Trace of Precipitation, MM = Missing Value Source: NWS Daily Summary

Daily Weather History Graph

Daily Weather History Graph

Search for Another Location

Airport or City:

Trip Planner

Search our weather history database for the weather conditions in past years. The results will help you decide how hot, cold, wet, or windy it might be!

Date:

Astronomy

Nov. 30, 2011 Rise Set
Actual Time 7:30 AM CST 4:18 PM CST
Civil Twilight 6:55 AM CST 4:52 PM CST
Nautical Twilight 6:17 AM CST 5:31 PM CST
Astronomical Twilight 5:40 AM CST 6:07 PM CST
Moon 11:36 AM CST (11/30) 10:29 PM CST (11/30)
Length of Visible Light 9h 57m
Length of Day
8h 48m
Waxing Crescent, 34% of the Moon is Illuminated
Nov 30
Waxing Crescent
Dec 2
First Quarter
Dec 10
Full
Dec 17
Last Quarter
Dec 24
New

Hourly Weather History & Observations

Time (CST) Temp. Windchill Dew Point Humidity Pressure Visibility Wind Dir Wind Speed Gust Speed Precip Events Conditions
12:14 AM 8.6 °F - 5.0 °F 85% 29.98 in 10.0 mi Calm Calm - N/A   Clear
12:34 AM 8.6 °F - 1.4 °F 73% 29.96 in 10.0 mi Calm Calm - N/A   Clear
12:54 AM 6.8 °F - 1.4 °F 79% 29.95 in 10.0 mi Calm Calm - N/A   Clear
1:14 AM 6.8 °F - 1.4 °F 79% 29.95 in 10.0 mi Calm Calm - N/A   Clear
1:34 AM 6.8 °F - 3.2 °F 85% 29.94 in 10.0 mi Calm Calm - N/A   Clear
2:14 AM 8.6 °F - 3.2 °F 79% 29.93 in 10.0 mi Calm Calm - N/A   Clear
2:34 AM 8.6 °F - 1.4 °F 73% 29.93 in 10.0 mi Calm Calm - N/A   Clear
2:54 AM 8.6 °F - 1.4 °F 73% 29.92 in 10.0 mi Calm Calm - N/A   Clear
3:14 AM 8.6 °F - 1.4 °F 73% 29.91 in 10.0 mi Calm Calm - N/A   Clear
3:34 AM 8.6 °F - 5.0 °F 85% 29.90 in 10.0 mi Calm Calm - N/A   Mostly Cloudy
3:54 AM 10.4 °F - 6.8 °F 85% 29.89 in 10.0 mi Calm Calm - N/A   Overcast
4:14 AM 15.8 °F - 12.2 °F 86% 29.89 in 10.0 mi Calm Calm - N/A   Overcast
4:34 AM 19.4 °F - 12.2 °F 74% 29.89 in 10.0 mi Calm Calm - N/A   Overcast
4:54 AM 19.4 °F - 12.2 °F 74% 29.88 in 10.0 mi Calm Calm - N/A   Overcast
5:14 AM 19.4 °F - 12.2 °F 74% 29.87 in 10.0 mi Calm Calm - N/A   Overcast
5:34 AM 17.6 °F - 12.2 °F 79% 29.87 in 10.0 mi Calm Calm - N/A   Overcast
5:54 AM 17.6 °F - 12.2 °F 79% 29.87 in 10.0 mi Calm Calm - N/A   Mostly Cloudy
6:14 AM 15.8 °F - 12.2 °F 86% 29.87 in 10.0 mi Calm Calm - N/A   Scattered Clouds
6:34 AM 15.8 °F - 10.4 °F 79% 29.87 in 10.0 mi Calm Calm - N/A   Clear
6:54 AM 15.8 °F - 10.4 °F 79% 29.86 in 10.0 mi Calm Calm - N/A   Clear
7:14 AM 14.0 °F - 8.6 °F 79% 29.86 in 10.0 mi Calm Calm - N/A   Clear
7:34 AM 14.0 °F - 10.4 °F 86% 29.86 in 10.0 mi Calm Calm - N/A   Clear
7:54 AM 15.8 °F - 10.4 °F 79% 29.86 in 10.0 mi Calm Calm - N/A   Clear
8:14 AM 19.4 °F - 14.0 °F 80% 29.86 in 10.0 mi Calm Calm - N/A   Clear
8:34 AM 19.4 °F - 12.2 °F 74% 29.86 in 10.0 mi Calm Calm - N/A   Clear
8:54 AM 19.4 °F - 15.8 °F 86% 29.86 in 10.0 mi Calm Calm - N/A   Clear
9:14 AM 24.8 °F - 17.6 °F 74% 29.86 in 10.0 mi Calm Calm - N/A   Clear
9:34 AM 28.4 °F - 19.4 °F 69% 29.86 in 10.0 mi Calm Calm - N/A   Clear
10:14 AM 30.2 °F - 19.4 °F 64% 29.87 in 10.0 mi Calm Calm - N/A   Clear
10:34 AM 32.0 °F - 17.6 °F 55% 29.87 in 10.0 mi Calm Calm - N/A   Clear
10:54 AM 32.0 °F - 15.8 °F 51% 29.87 in 10.0 mi Calm Calm - N/A   Scattered Clouds
11:14 AM 33.8 °F - 17.6 °F 52% 29.87 in 10.0 mi Calm Calm - N/A   Clear
11:54 AM 33.8 °F - 15.8 °F 48% 29.85 in 10.0 mi Calm Calm - N/A   Clear
12:14 PM 33.8 °F - 15.8 °F 48% 29.86 in 10.0 mi Calm Calm - N/A   Scattered Clouds
12:54 PM 33.8 °F 30.8 °F 15.8 °F 48% 29.85 in 10.0 mi East 3.5 mph - N/A   Clear
1:14 PM 33.8 °F - 17.6 °F 52% 29.85 in 10.0 mi Calm Calm - N/A   Clear
1:34 PM 33.8 °F 30.8 °F 15.8 °F 48% 29.85 in 10.0 mi ENE 3.5 mph - N/A   Clear
1:54 PM 33.8 °F - 17.6 °F 52% 29.86 in 10.0 mi Calm Calm - N/A   Clear
2:14 PM 33.8 °F - 17.6 °F 52% 29.86 in 10.0 mi Calm Calm - N/A   Clear
2:34 PM 33.8 °F - 17.6 °F 52% 29.87 in 10.0 mi Calm Calm - N/A   Clear
2:54 PM 32.0 °F - 21.2 °F 64% 29.88 in 3.0 mi Calm Calm - N/A Snow Light Snow
3:14 PM 30.2 °F - 21.2 °F 69% 29.89 in 4.0 mi Calm Calm - N/A Snow Light Snow
3:34 PM 30.2 °F - 23.0 °F 75% 29.90 in 1.5 mi Calm Calm - N/A Snow Light Snow
3:54 PM 28.4 °F - 24.8 °F 86% 29.90 in 1.2 mi Calm Calm - N/A Snow Snow
4:14 PM 28.4 °F - 24.8 °F 86% 29.92 in 1.2 mi Calm Calm - 0.02 in   Mostly Cloudy
4:34 PM 28.4 °F - 24.8 °F 86% 29.93 in 1.5 mi Calm Calm - 0.03 in Snow Light Snow
4:55 PM 28.4 °F - 26.6 °F 93% 29.93 in 1.5 mi Calm Calm - 0.01 in Snow Light Snow
5:14 PM 28.4 °F - 26.6 °F 93% 29.94 in 1.8 mi Calm Calm - 0.01 in Snow Light Snow
5:34 PM 28.4 °F - 26.6 °F 93% 29.96 in 3.0 mi Calm Calm - 0.01 in Snow Light Snow
5:54 PM 28.4 °F - 26.6 °F 93% 29.96 in 1.8 mi Calm Calm - N/A Snow Light Snow
6:14 PM 28.4 °F - 24.8 °F 86% 29.97 in 2.0 mi Calm Calm - N/A Snow Light Snow
6:34 PM 28.4 °F - 24.8 °F 86% 29.98 in 2.0 mi Calm Calm - N/A Snow Light Snow
6:54 PM 26.6 °F - 24.8 °F 93% 29.98 in 4.0 mi Calm Calm - N/A Snow Light Snow
7:14 PM 26.6 °F - 24.8 °F 93% 29.99 in 10.0 mi Calm Calm - N/A Snow Light Snow
7:34 PM 26.6 °F - 24.8 °F 93% 30.00 in 5.0 mi Calm Calm - N/A Snow Light Snow
8:14 PM 28.4 °F 24.6 °F 23.0 °F 80% 30.00 in 1.8 mi North 3.5 mph - N/A Snow Light Snow
8:34 PM 28.4 °F - 23.0 °F 80% 30.02 in 3.0 mi Calm Calm - N/A Snow Light Snow
8:54 PM 28.4 °F 24.6 °F 23.0 °F 80% 30.03 in 3.0 mi North 3.5 mph - N/A Snow Light Snow
9:34 PM 28.4 °F 22.2 °F 21.2 °F 74% 30.04 in 4.0 mi North 5.8 mph - N/A Snow Light Snow
9:54 PM 28.4 °F 22.2 °F 21.2 °F 74% 30.05 in 4.0 mi NNE 5.8 mph - N/A Snow Light Snow
10:14 PM 28.4 °F 24.6 °F 21.2 °F 74% 30.06 in 10.0 mi NNE 3.5 mph - N/A   Overcast
10:34 PM 26.6 °F 22.6 °F 21.2 °F 80% 30.07 in 10.0 mi NNE 3.5 mph - N/A   Overcast
10:54 PM 26.6 °F 18.2 °F 21.2 °F 80% 30.08 in 10.0 mi North 8.1 mph - N/A   Overcast
11:14 PM 26.6 °F 21.2 °F 19.4 °F 74% 30.09 in 10.0 mi North 4.6 mph - N/A   Mostly Cloudy
11:34 PM 26.6 °F 22.6 °F 19.4 °F 74% 30.10 in 10.0 mi NNE 3.5 mph - N/A   Scattered Clouds
11:54 PM 26.6 °F 22.6 °F 19.4 °F 74% 30.11 in 10.0 mi North 3.5 mph - N/A   Scattered Clouds